• In Belgien
  • Länderverzeichnis
  • Für 7 Tage
  • Wassertemperatur
  • Satellitenkarten
  • Wetterkarte
  • Widgets
  • user-avatar
    Anmelden

    Stündliche Wetter Canberra

    Heute, 18 September, Dienstag

    Zeit Temperatur Niederschläge Wind Luftdruck Luftfeuchtigkeit
    00:00 +5°C° 0 mm 1 m/S 710 mmHg 82%
    01:00 +5°C° 0 mm 1 m/S 710 mmHg 83%
    02:00 +5°C° 0 mm 1 m/S 710 mmHg 83%
    03:00 +5°C° 0 mm 1 m/S 710 mmHg 84%
    04:00 +4°C° 0 mm 1 m/S 709 mmHg 84%
    05:00 +5°C° 0 mm 1 m/S 709 mmHg 81%
    06:00 +6°C° 0 mm 1 m/S 709 mmHg 78%
    07:00 +6°C° 0 mm 1 m/S 709 mmHg 75%
    08:00 +8°C° 0 mm 2 m/S 709 mmHg 65%
    09:00 +12°C° 0 mm 4 m/S 709 mmHg 54%
    10:00 +15°C° 0 mm 4 m/S 710 mmHg 41%
    11:00 +16°C° 0 mm 5 m/S 709 mmHg 40%
    12:00 +17°C° 0 mm 5 m/S 708 mmHg 39%
    13:00 +17°C° 0 mm 6 m/S 708 mmHg 39%
    14:00 +17°C° 0 mm 5 m/S 708 mmHg 42%
    15:00 +17°C° 0 mm 5 m/S 707 mmHg 45%
    16:00 +17°C° 0 mm 5 m/S 706 mmHg 50%
    17:00 +14°C° 0 mm 4 m/S 706 mmHg 58%
    18:00 +12°C° 0 mm 3 m/S 706 mmHg 67%
    19:00 +10°C° 0 mm 2 m/S 706 mmHg 76%
    20:00 +10°C° 0 mm 2 m/S 706 mmHg 76%
    21:00 +9°C° 0 mm 2 m/S 706 mmHg 76%
    22:00 +9°C° 0 mm 2 m/S 705 mmHg 77%
    23:00 +8°C° 0 mm 2 m/S 705 mmHg 72%

    Morgen, 19 September, Mittwoch

    Zeit Temperatur Niederschläge Wind Luftdruck Luftfeuchtigkeit
    00:00 +8°C° 0 mm 2 m/S 705 mmHg 68%
    01:00 +8°C° 0 mm 2 m/S 705 mmHg 63%
    02:00 +9°C° 0 mm 2 m/S 704 mmHg 59%
    03:00 +9°C° 0 mm 3 m/S 704 mmHg 55%
    04:00 +9°C° 0 mm 3 m/S 704 mmHg 51%
    05:00 +9°C° 0 mm 3 m/S 704 mmHg 52%
    06:00 +9°C° 0 mm 3 m/S 704 mmHg 53%
    07:00 +9°C° 0 mm 3 m/S 704 mmHg 54%
    08:00 +10°C° 0 mm 4 m/S 705 mmHg 53%
    09:00 +12°C° 0 mm 5 m/S 705 mmHg 52%
    10:00 +14°C° 0 mm 6 m/S 705 mmHg 50%
    11:00 +14°C° 0 mm 6 m/S 705 mmHg 45%
    12:00 +14°C° 0 mm 6 m/S 705 mmHg 40%
    13:00 +14°C° 0 mm 7 m/S 705 mmHg 35%
    14:00 +14°C° 0 mm 6 m/S 705 mmHg 36%
    15:00 +13°C° 0 mm 5 m/S 706 mmHg 38%
    16:00 +13°C° 0 mm 5 m/S 706 mmHg 40%
    17:00 +10°C° 0 mm 4 m/S 706 mmHg 47%
    18:00 +8°C° 0 mm 3 m/S 707 mmHg 54%
    19:00 +5°C° 0 mm 3 m/S 707 mmHg 61%
    20:00 +5°C° 0 mm 2 m/S 708 mmHg 66%
    21:00 +4°C° 0 mm 2 m/S 708 mmHg 71%
    22:00 +4°C° 0 mm 2 m/S 708 mmHg 76%
    23:00 +3°C° 0 mm 2 m/S 709 mmHg 77%

    übermorgen, 20 September, Donnerstag

    Zeit Temperatur Niederschläge Wind Luftdruck Luftfeuchtigkeit
    00:00 +4°C° 0 mm 1 m/S 709 mmHg 78%
    01:00 +4°C° 0 mm 1 m/S 709 mmHg 79%
    02:00 +3°C° 0 mm 1 m/S 709 mmHg 80%
    03:00 +3°C° 0 mm 1 m/S 709 mmHg 80%
    04:00 +3°C° 0 mm 1 m/S 709 mmHg 81%
    05:00 +3°C° 0 mm 1 m/S 710 mmHg 77%
    06:00 +4°C° 0 mm 1 m/S 710 mmHg 74%
    07:00 +5°C° 0 mm 1 m/S 711 mmHg 70%
    08:00 +8°C° 0 mm 1 m/S 711 mmHg 61%
    09:00 +11°C° 0 mm 1 m/S 712 mmHg 51%
    10:00 +14°C° 0 mm 1 m/S 712 mmHg 41%
    11:00 +15°C° 0 mm 2 m/S 712 mmHg 39%
    12:00 +15°C° 0 mm 2 m/S 712 mmHg 36%
    13:00 +16°C° 0 mm 3 m/S 712 mmHg 34%
    14:00 +16°C° 0 mm 3 m/S 712 mmHg 36%
    15:00 +14°C° 0 mm 3 m/S 711 mmHg 39%
    16:00 +14°C° 0 mm 3 m/S 711 mmHg 41%
    17:00 +12°C° 0 mm 3 m/S 712 mmHg 50%
    18:00 +10°C° 0 mm 2 m/S 713 mmHg 60%
    19:00 +7°C° 0 mm 2 m/S 713 mmHg 70%
    20:00 +6°C° 0 mm 2 m/S 714 mmHg 76%
    21:00 +6°C° 0 mm 1 m/S 714 mmHg 81%
    22:00 +5°C° 0 mm 1 m/S 715 mmHg 87%
    23:00 +5°C° 0 mm 1 m/S 715 mmHg 88%

    21 September, Freitag

    Zeit Temperatur Niederschläge Wind Luftdruck Luftfeuchtigkeit
    00:00 +4°C° 0 mm 1 m/S 715 mmHg 89%
    01:00 +4°C° 0 mm 1 m/S 715 mmHg 90%
    02:00 +4°C° 0 mm 1 m/S 715 mmHg 90%
    03:00 +4°C° 0 mm 1 m/S 715 mmHg 90%
    04:00 +2°C° 0 mm 0 m/S 715 mmHg 90%
    05:00 +4°C° 0 mm 1 m/S 715 mmHg 86%
    06:00 +5°C° 0 mm 1 m/S 716 mmHg 82%
    07:00 +6°C° 0 mm 1 m/S 716 mmHg 78%
    08:00 +9°C° 0 mm 1 m/S 717 mmHg 67%
    09:00 +13°C° 0 mm 1 m/S 717 mmHg 56%
    10:00 +16°C° 0 mm 2 m/S 717 mmHg 45%
    11:00 +17°C° 0 mm 2 m/S 717 mmHg 43%
    12:00 +18°C° 0 mm 2 m/S 716 mmHg 41%
    13:00 +19°C° 0 mm 3 m/S 716 mmHg 39%
    14:00 +19°C° 0 mm 3 m/S 716 mmHg 42%
    15:00 +18°C° 0 mm 3 m/S 715 mmHg 46%
    16:00 +18°C° 0 mm 3 m/S 715 mmHg 49%
    17:00 +14°C° 0 mm 3 m/S 715 mmHg 61%
    18:00 +13°C° 0 mm 2 m/S 715 mmHg 73%
    19:00 +9°C° 0 mm 2 m/S 716 mmHg 85%
    20:00 +9°C° 0 mm 1 m/S 716 mmHg 88%
    21:00 +9°C° 0 mm 1 m/S 716 mmHg 91%
    22:00 +8°C° 0 mm 1 m/S 716 mmHg 94%
    23:00 +7°C° 0 mm 1 m/S 716 mmHg 94%

    22 September, Samstag

    Zeit Temperatur Niederschläge Wind Luftdruck Luftfeuchtigkeit
    00:00 +7°C° 0 mm 1 m/S 716 mmHg 94%
    01:00 +7°C° 0 mm 1 m/S 716 mmHg 94%
    02:00 +6°C° 0 mm 1 m/S 715 mmHg 94%
    03:00 +6°C° 0 mm 1 m/S 715 mmHg 94%
    04:00 +6°C° 0 mm 1 m/S 715 mmHg 93%
    05:00 +7°C° 0 mm 1 m/S 715 mmHg 90%
    06:00 +7°C° 0 mm 1 m/S 715 mmHg 86%
    07:00 +8°C° 0 mm 1 m/S 716 mmHg 83%
    08:00 +10°C° 0 mm 2 m/S 716 mmHg 72%
    09:00 +13°C° 0 mm 3 m/S 716 mmHg 60%
    10:00 +17°C° 0 mm 4 m/S 716 mmHg 49%
    11:00 +18°C° 0 mm 4 m/S 716 mmHg 47%
    12:00 +19°C° 0 mm 4 m/S 715 mmHg 45%
    13:00 +20°C° 0 mm 4 m/S 715 mmHg 43%
    14:00 +20°C° 0 mm 4 m/S 714 mmHg 46%
    15:00 +19°C° 0 mm 4 m/S 714 mmHg 48%
    16:00 +19°C° 0 mm 4 m/S 714 mmHg 51%
    17:00 +17°C° 0 mm 4 m/S 714 mmHg 60%
    18:00 +13°C° 0 mm 3 m/S 714 mmHg 69%
    19:00 +12°C° 0 mm 2 m/S 714 mmHg 78%
    20:00 +10°C° 0 mm 2 m/S 714 mmHg 81%
    21:00 +10°C° 0 mm 1 m/S 714 mmHg 84%
    22:00 +9°C° 0 mm 1 m/S 714 mmHg 87%
    23:00 +9°C° 0 mm 1 m/S 714 mmHg 88%

    23 September, Sonntag

    Zeit Temperatur Niederschläge Wind Luftdruck Luftfeuchtigkeit
    00:00 +8°C° 0 mm 1 m/S 714 mmHg 89%
    01:00 +8°C° 0 mm 1 m/S 713 mmHg 90%
    02:00 +8°C° 0 mm 1 m/S 713 mmHg 90%
    03:00 +7°C° 0 mm 1 m/S 713 mmHg 91%
    04:00 +7°C° 0 mm 1 m/S 713 mmHg 92%
    05:00 +8°C° 0 mm 1 m/S 714 mmHg 89%
    06:00 +8°C° 0 mm 1 m/S 714 mmHg 85%
    07:00 +9°C° 0 mm 1 m/S 714 mmHg 82%
    08:00 +12°C° 0 mm 2 m/S 714 mmHg 72%
    09:00 +13°C° 0 mm 3 m/S 715 mmHg 61%
    10:00 +17°C° 0 mm 3 m/S 715 mmHg 50%
    11:00 +18°C° 0.1 mm 4 m/S 715 mmHg 49%
    12:00 +18°C° 0.1 mm 4 m/S 714 mmHg 47%
    13:00 +18°C° 0.1 mm 4 m/S 714 mmHg 46%
    14:00 +17°C° 0.1 mm 4 m/S 714 mmHg 51%
    15:00 +15°C° 0.1 mm 4 m/S 714 mmHg 57%
    16:00 +14°C° 0.1 mm 3 m/S 713 mmHg 62%
    17:00 +12°C° 0.2 mm 3 m/S 714 mmHg 72%
    18:00 +10°C° 0.2 mm 2 m/S 714 mmHg 81%
    19:00 +8°C° 0.2 mm 2 m/S 715 mmHg 90%
    20:00 +7°C° 0.1 mm 2 m/S 715 mmHg 91%
    21:00 +7°C° 0.1 mm 2 m/S 715 mmHg 93%
    22:00 +6°C° 0.1 mm 2 m/S 716 mmHg 94%
    23:00 +6°C° 0 mm 2 m/S 715 mmHg 93%
    Mehr zeigen